EW6553 Weather Reports


time (UTC)temp
C
wind
direction
speed
KPH
gust
KPH
rain 1hr
cm
rain 24hr
cm
rain mn
cm
humidity
%
barometer
mb
20260506014301 21 10 4.8 14.5 0.00 0.00 0.00 69 1006.4
20260506013803 21 346 4.8 14.5 0.00 0.00 0.00 68 1006.3
20260506013303 21 338 4.8 14.5 0.00 0.00 0.00 68 1006.4
20260506012800 22 11 4.8 14.5 0.00 0.00 0.00 68 1006.4
20260506012254 22 23 4.8 14.5 0.00 0.00 0.00 68 1006.3
20260506012241 22 315 3.2 12.9 0.00 0.00 0.00 68 1006.1
20260506011244 22 76 3.2 12.9 0.00 0.00 0.00 67 1006.1
20260506011018 22 5 3.2 9.7 0.00 0.00 0.00 67 1006.1
20260506010245 22 355 4.8 14.5 0.00 0.00 0.00 67 1006.3
20260506005743 22 31 3.2 14.5 0.00 0.00 0.00 67 1006.1
20260506005243 23 351 4.8 12.9 0.00 0.00 0.00 67 1005.9
20260506004741 23 355 4.8 12.9 0.00 0.00 0.00 66 1005.8
20260506004239 23 339 3.2 17.7 0.00 0.00 0.00 66 1005.8
20260506003739 23 0 4.8 17.7 0.00 0.00 0.00 66 1005.5
20260506003240 23 348 6.4 19.3 0.00 0.00 0.00 66 1005.3
20260506002736 24 331 6.4 19.3 0.00 0.00 0.00 65 1005.4
20260506002234 24 0 4.8 16.1 0.00 0.00 0.00 65 1005.3
20260506001733 24 348 4.8 16.1 0.00 0.00 0.00 64 1005.1
20260506001232 25 355 4.8 16.1 0.00 0.00 0.00 63 1005.2
20260506001004 25 325 6.4 16.1 0.00 0.00 0.00 63 1005.1
20260506000230 25 0 6.4 19.3 0.00 0.00 0.00 63 1005.0
20260505235730 25 355 6.4 19.3 0.00 0.00 0.00 62 1005.0
20260505235230 25 0 6.4 19.3 0.00 0.00 0.00 61 1005.0
20260505234954 26 324 6.4 19.3 0.00 0.00 0.00 62 1005.0
20260505234232 26 9 6.4 17.7 0.00 0.00 0.00 61 1004.8
20260505233952 26 339 6.4 19.3 0.00 0.00 0.00 60 1004.7
20260505233216 26 331 6.4 19.3 0.00 0.00 0.00 59 1004.7
20260505232943 27 340 6.4 19.3 0.00 0.00 0.00 58 1004.6
20260505232209 27 337 8.0 19.3 0.00 0.00 0.00 58 1004.7
20260505231708 27 315 6.4 19.3 0.00 0.00 0.00 58 1004.6
20260505231209 27 355 6.4 22.5 0.00 0.00 0.00 57 1004.4
20260505230709 28 344 6.4 22.5 0.00 0.00 0.00 56 1004.4
20260505230207 28 355 6.4 17.7 0.00 0.00 0.00 57 1004.4
20260505225706 29 350 6.4 16.1 0.00 0.00 0.00 56 1004.2
20260505225207 29 339 4.8 14.5 0.00 0.00 0.00 56 1004.0
20260505224706 30 351 4.8 12.9 0.00 0.00 0.00 53 1003.9
20260505224205 30 5 6.4 25.7 0.00 0.00 0.00 52 1003.7
20260505223705 30 338 8.0 25.7 0.00 0.00 0.00 51 1003.7
20260505223436 30 333 6.4 17.7 0.00 0.00 0.00 50 1003.8
20260505222705 30 315 4.8 16.1 0.00 0.00 0.00 50 1003.8
20260505222208 30 355 4.8 16.1 0.00 0.00 0.00 49 1003.7
20260505221703 31 355 6.4 16.1 0.00 0.00 0.00 49 1003.5
20260505221425 31 340 8.0 17.7 0.00 0.00 0.00 49 1003.6
20260505220702 31 22 6.4 19.3 0.00 0.00 0.00 49 1003.4
20260505220208 31 341 6.4 19.3 0.00 0.00 0.00 50 1003.4
20260505215927 32 16 8.0 19.3 0.00 0.00 0.00 48 1003.4
20260505215159 33 259 6.4 19.3 0.00 0.00 0.00 46 1003.3
20260505214656 33 263 6.4 12.9 0.00 0.00 0.00 46 1003.5
20260505214142 33 343 8.0 16.1 0.00 0.00 0.00 45 1003.5
20260505213906 33 257 9.7 22.5 0.00 0.00 0.00 45 1003.4
20260505213141 33 233 8.0 22.5 0.00 0.00 0.00 45 1003.3
20260505212913 33 256 6.4 14.5 0.00 0.00 0.00 48 1003.4
20260505212144 33 294 9.7 17.7 0.00 0.00 0.00 46 1003.4
20260505211642 33 214 9.7 17.7 0.00 0.00 0.00 47 1003.5
20260505211141 33 225 8.0 16.1 0.00 0.00 0.00 49 1003.6
20260505210639 33 281 8.0 16.1 0.00 0.00 0.00 49 1003.7
20260505210629 33 253 9.7 22.5 0.00 0.00 0.00 48 1003.7
20260505205637 33 240 11.3 22.5 0.00 0.00 0.00 48 1003.7
20260505205358 33 212 9.7 19.3 0.00 0.00 0.00 48 1003.8
20260505204637 33 285 8.0 17.7 0.00 0.00 0.00 49 1003.9
20260505204136 33 308 9.7 19.3 0.00 0.00 0.00 50 1003.9
20260505203636 32 241 8.0 19.3 0.00 0.00 0.00 52 1004.0
20260505203134 33 244 9.7 22.5 0.00 0.00 0.00 53 1004.0
20260505202633 32 228 11.3 22.5 0.00 0.00 0.00 52 1004.1
20260505202132 32 241 9.7 20.9 0.00 0.00 0.00 51 1004.2
20260505201633 32 229 9.7 22.5 0.00 0.00 0.00 51 1004.4
20260505201130 32 235 11.3 22.5 0.00 0.00 0.00 52 1004.2
20260505200628 32 297 11.3 22.5 0.00 0.00 0.00 52 1004.2
20260505200122 33 227 9.7 20.9 0.00 0.00 0.00 56 1004.5
20260505195621 32 222 9.7 20.9 0.00 0.00 0.00 54 1004.5
20260505195120 32 232 8.0 16.1 0.00 0.00 0.00 55 1004.4
20260505194842 32 248 8.0 16.1 0.00 0.00 0.00 58 1004.5
20260505194120 32 231 8.0 17.7 0.00 0.00 0.00 57 1004.5
20260505193620 31 244 11.3 22.5 0.00 0.00 0.00 57 1004.5
20260505193120 31 242 12.9 22.5 0.00 0.00 0.00 59 1004.5
20260505192620 31 237 12.9 24.1 0.00 0.00 0.00 59 1004.8
20260505192120 31 227 14.5 29.0 0.00 0.00 0.00 57 1004.6
20260505191620 31 234 16.1 29.0 0.00 0.00 0.00 61 1004.6
20260505191121 30 222 14.5 27.4 0.00 0.00 0.00 59 1004.6
20260505190620 31 181 11.3 24.1 0.00 0.00 0.00 59 1004.5
20260505190121 31 248 9.7 19.3 0.00 0.00 0.00 60 1004.6
20260505185619 30 234 11.3 19.3 0.00 0.00 0.00 62 1004.5
20260505185345 30 103 12.9 20.9 0.00 0.00 0.00 63 1004.8
20260505184620 30 217 12.9 22.5 0.00 0.00 0.00 62 1004.7
20260505184120 30 253 12.9 24.1 0.00 0.00 0.00 63 1004.8
20260505183843 29 237 11.3 25.7 0.00 0.00 0.00 64 1004.8
20260505183344 29 217 11.3 25.7 0.00 0.00 0.00 63 1004.8
20260505182616 29 243 12.9 20.9 0.00 0.00 0.00 65 1004.9
20260505182117 29 243 12.9 20.9 0.00 0.00 0.00 66 1004.8
20260505181617 29 244 12.9 22.5 0.00 0.00 0.00 65 1004.9
20260505181118 28 212 11.3 22.5 0.00 0.00 0.00 64 1004.9
20260505180620 28 239 12.9 25.7 0.00 0.00 0.00 66 1004.9
20260505180117 28 207 12.9 27.4 0.00 0.00 0.00 65 1005.0
20260505175616 28 225 14.5 27.4 0.00 0.00 0.00 66 1005.0
20260505175114 28 238 11.3 25.7 0.00 0.00 0.00 68 1005.0
20260505174614 28 223 9.7 24.1 0.00 0.00 0.00 66 1004.9
20260505174114 28 211 9.7 24.1 0.00 0.00 0.00 65 1005.0
20260505173610 28 234 12.9 27.4 0.00 0.00 0.00 67 1005.0
20260505173110 28 231 14.5 27.4 0.00 0.00 0.00 66 1005.0
20260505172610 28 246 14.5 25.7 0.00 0.00 0.00 66 1005.1
20260505172110 27 246 12.9 25.7 0.00 0.00 0.00 67 1005.1
20260505171609 27 209 11.3 22.5 0.00 0.00 0.00 67 1005.1
20260505171110 27 223 11.3 20.9 0.00 0.00 0.00 69 1005.4
20260505170610 27 243 11.3 20.9 0.00 0.00 0.00 67 1005.0
20260505170110 27 205 11.3 25.7 0.00 0.00 0.00 66 1005.1
20260505165610 27 226 12.9 27.4 0.00 0.00 0.00 66 1005.0
20260505165106 28 235 11.3 27.4 0.00 0.00 0.00 66 1004.9
20260505164606 28 233 11.3 24.1 0.00 0.00 0.00 68 1005.0
20260505164106 27 225 11.3 24.1 0.00 0.00 0.00 70 1005.0
20260505163606 26 213 11.3 24.1 0.00 0.00 0.00 71 1005.0
20260505163107 26 188 12.9 24.1 0.00 0.00 0.00 70 1005.0
20260505162606 26 249 12.9 24.1 0.00 0.00 0.00 71 1004.9
20260505162106 27 224 14.5 27.4 0.00 0.00 0.00 70 1004.9
20260505161606 26 224 16.1 27.4 0.00 0.00 0.00 71 1005.0
20260505161106 26 244 14.5 27.4 0.00 0.00 0.00 70 1005.0
20260505160602 26 228 12.9 29.0 0.00 0.00 0.00 71 1004.8
20260505153101 25 208 11.3 22.5 0.00 0.00 0.00 75 1004.5
20260505152600 25 217 11.3 22.5 0.00 0.00 0.00 75 1004.7
20260505152059 25 236 8.0 22.5 0.00 0.00 0.00 74 1004.8
20260505151823 25 219 11.3 29.0 0.00 0.00 0.00 75 1004.8
20260505151056 24 225 12.9 29.0 0.00 0.00 0.00 76 1004.9
20260505150556 24 200 12.9 25.7 0.00 0.00 0.00 77 1004.9
20260505150319 24 238 12.9 29.0 0.00 0.00 0.00 76 1004.8
20260505140538 23 180 12.9 29.0 0.00 0.00 0.00 80 1004.9
20260505125014 21 211 9.7 17.7 0.00 0.00 0.00 85 1004.1
20260505124511 21 217 9.7 20.9 0.00 0.00 0.00 85 1004.0
20260505124010 21 215 11.3 22.5 0.00 0.00 0.00 85 1004.0
20260505123726 21 205 11.3 22.5 0.00 0.00 0.00 85 1003.9
20260505123228 21 196 11.3 22.5 0.00 0.00 0.00 85 1003.9
20260505122505 21 219 11.3 22.5 0.00 0.00 0.00 85 1003.8
20260505122004 21 206 11.3 22.5 0.00 0.00 0.00 85 1003.8
20260505121503 21 209 11.3 24.1 0.00 0.00 0.00 85 1003.7
20260505121003 21 216 9.7 24.1 0.00 0.00 0.00 85 1003.6
20260505120503 21 227 11.3 19.3 0.00 0.00 0.00 85 1003.4
20260505120003 21 221 11.3 19.3 0.00 0.00 0.00 85 1003.5
20260505115501 21 146 11.3 22.5 0.00 0.00 0.00 85 1003.6
20260505115000 21 211 11.3 22.5 0.00 0.00 0.00 85 1003.7
20260505114504 21 192 11.3 20.9 0.00 0.00 0.00 85 1003.6
20260505114004 21 210 9.7 20.9 0.00 0.00 0.00 85 1003.6
20260505113507 21 210 11.3 22.5 0.00 0.00 0.00 85 1003.5
20260505113005 21 128 9.7 22.5 0.00 0.00 0.00 85 1003.5
20260505112726 21 238 9.7 22.5 0.00 0.00 0.00 85 1003.5
20260505112004 21 219 11.3 22.5 0.00 0.00 0.00 85 1003.4
20260505111736 21 215 11.3 20.9 0.00 0.00 0.00 85 1003.5
20260505111004 21 217 11.3 20.9 0.00 0.00 0.00 85 1003.5
20260505110505 21 138 11.3 20.9 0.00 0.00 0.00 85 1003.5
20260505102005 21 184 9.7 22.5 0.00 0.00 0.00 84 1003.5
20260505101502 21 209 9.7 25.7 0.00 0.00 0.00 83 1003.6
20260505101001 21 250 9.7 25.7 0.00 0.00 0.00 83 1003.5
20260505100501 21 200 9.7 19.3 0.00 0.00 0.00 83 1003.6
20260505100230 21 225 12.9 27.4 0.00 0.00 0.00 83 1003.5
20260505095453 21 224 12.9 29.0 0.00 0.00 0.00 83 1003.6
20260505094949 21 211 11.3 29.0 0.00 0.00 0.00 83 1003.6
20260505094449 21 188 9.7 22.5 0.00 0.00 0.00 83 1003.4
20260505093949 21 220 11.3 27.4 0.00 0.00 0.00 83 1003.5
20260505093449 21 207 11.3 27.4 0.00 0.00 0.00 82 1003.7
20260505092949 21 224 11.3 27.4 0.00 0.00 0.00 82 1003.7
20260505092449 21 229 11.3 25.7 0.00 0.00 0.00 82 1003.6
20260505091949 21 217 9.7 25.7 0.00 0.00 0.00 82 1003.7
20260505091450 21 167 11.3 22.5 0.00 0.00 0.00 82 1003.8
20260505091220 21 216 11.3 22.5 0.00 0.00 0.00 81 1003.9
20260505090449 21 219 11.3 25.7 0.00 0.00 0.00 81 1004.0
20260505090217 22 234 11.3 25.7 0.00 0.00 0.00 81 1004.0
20260505085450 22 208 11.3 25.7 0.00 0.00 0.00 81 1003.9
20260505084949 22 205 11.3 25.7 0.00 0.00 0.00 80 1003.9
20260505084454 22 211 11.3 25.7 0.00 0.00 0.00 80 1004.0
20260505083952 22 224 11.3 25.7 0.00 0.00 0.00 80 1004.1
20260505083452 22 218 11.3 25.7 0.00 0.00 0.00 80 1004.0
20260505082950 22 220 11.3 25.7 0.00 0.00 0.00 80 1004.0
20260505082445 22 223 11.3 29.0 0.00 0.00 0.00 79 1004.0
20260505081944 22 212 11.3 29.0 0.00 0.00 0.00 79 1003.9
20260505081710 22 214 9.7 29.0 0.00 0.00 0.00 79 1003.9
20260505080945 22 77 9.7 25.7 0.00 0.00 0.00 79 1003.9
20260505080445 22 193 9.7 25.7 0.00 0.00 0.00 78 1004.0
20260505075945 22 234 9.7 25.7 0.00 0.00 0.00 78 1003.9
20260505075709 22 205 8.0 25.7 0.00 0.00 0.00 78 1004.0
20260505074945 22 216 8.0 19.3 0.00 0.00 0.00 78 1004.0
20260505074443 22 213 9.7 22.5 0.00 0.00 0.00 77 1004.1
20260505073943 22 205 9.7 22.5 0.00 0.00 0.00 77 1004.4
20260505073442 22 232 9.7 20.9 0.00 0.00 0.00 77 1004.5
20260505072944 22 192 8.0 20.9 0.00 0.00 0.00 76 1004.5
20260505072443 22 206 8.0 22.5 0.00 0.00 0.00 76 1004.7
20260505071938 22 212 9.7 22.5 0.00 0.00 0.00 75 1004.8
20260505071439 22 214 9.7 25.7 0.00 0.00 0.00 75 1004.9
20260505070939 22 208 9.7 25.7 0.00 0.00 0.00 75 1005.0
20260505070735 22 196 11.3 24.1 0.00 0.00 0.00 75 1005.0
20260505065939 23 221 9.7 19.3 0.00 0.00 0.00 74 1005.1
20260505065438 23 213 11.3 20.9 0.00 0.00 0.00 74 1005.1
20260505064939 23 224 11.3 20.9 0.00 0.00 0.00 74 1005.2
20260505064707 23 234 11.3 25.7 0.00 0.00 0.00 74 1005.2
20260505063939 23 223 11.3 25.7 0.00 0.00 0.00 73 1005.4
20260505063435 23 207 9.7 24.1 0.00 0.00 0.00 73 1005.4
20260505062935 23 225 9.7 25.7 0.00 0.00 0.00 73 1005.4
20260505062434 23 223 9.7 25.7 0.00 0.00 0.00 73 1005.4
20260505061934 23 161 9.7 19.3 0.00 0.00 0.00 72 1005.4
20260505061435 23 207 8.0 17.7 0.00 0.00 0.00 72 1005.5
20260505060935 23 225 8.0 20.9 0.00 0.00 0.00 72 1005.4
20260505060705 23 221 8.0 30.6 0.00 0.00 0.00 71 1005.5
20260505055935 23 175 8.0 30.6 0.00 0.00 0.00 71 1005.5
20260505055435 23 157 8.0 20.9 0.00 0.00 0.00 70 1005.4
20260505054931 23 201 8.0 17.7 0.00 0.00 0.00 70 1005.5
20260505054431 23 182 9.7 19.3 0.00 0.00 0.00 70 1005.4
20260505053930 23 215 8.0 22.5 0.00 0.00 0.00 69 1005.3
20260505053657 23 211 8.0 24.1 0.00 0.00 0.00 69 1005.3
20260505052928 24 205 8.0 24.1 0.00 0.00 0.00 69 1005.4
20260505052429 24 205 8.0 22.5 0.00 0.00 0.00 69 1005.4
20260505051929 23 199 8.0 22.5 0.00 0.00 0.00 69 1005.3
20260505051429 23 205 6.4 16.1 0.00 0.00 0.00 70 1005.3
20260505050929 23 223 6.4 14.5 0.00 0.00 0.00 70 1005.3
20260505050429 23 221 6.4 14.5 0.00 0.00 0.00 70 1005.5
20260505041421 23 199 6.4 17.7 0.00 0.00 0.00 70 1005.7
20260505040919 23 210 6.4 17.7 0.00 0.00 0.00 70 1005.7
20260505040417 23 217 6.4 14.5 0.00 0.00 0.00 70 1005.8
20260505035916 23 230 6.4 19.3 0.00 0.00 0.00 70 1005.7
20260505035416 23 199 8.0 19.3 0.00 0.00 0.00 70 1005.7
20260505034916 23 201 8.0 17.7 0.00 0.00 0.00 70 1005.7
20260505034416 23 219 8.0 16.1 0.00 0.00 0.00 70 1005.8
20260505033917 23 221 8.0 16.1 0.00 0.00 0.00 70 1005.7
20260505033417 23 200 8.0 17.7 0.00 0.00 0.00 70 1005.6
20260505032914 23 201 8.0 17.7 0.00 0.00 0.00 70 1005.7
20260505032414 23 209 8.0 19.3 0.00 0.00 0.00 70 1005.6
20260505031914 23 210 6.4 19.3 0.00 0.00 0.00 70 1005.6
20260505031413 23 214 6.4 14.5 0.00 0.00 0.00 69 1005.7
20260505031134 23 214 8.0 24.1 0.00 0.00 0.00 69 1005.6
20260505030412 24 217 8.0 24.1 0.00 0.00 0.00 69 1005.7
20260505025912 24 217 6.4 19.3 0.00 0.00 0.00 69 1005.8
20260505025410 24 219 6.4 16.1 0.00 0.00 0.00 69 1005.9
20260505024910 24 150 6.4 14.5 0.00 0.00 0.00 68 1005.9
20260505024408 24 205 4.8 16.1 0.00 0.00 0.00 68 1005.9
20260505023905 24 194 6.4 16.1 0.00 0.00 0.00 68 1005.9
20260505023404 24 212 6.4 16.1 0.00 0.00 0.00 68 1005.7
20260505022904 24 157 4.8 16.1 0.00 0.00 0.00 68 1005.7
20260505022404 24 205 6.4 14.5 0.00 0.00 0.00 68 1005.8
20260505021902 24 191 4.8 14.5 0.00 0.00 0.00 68 1005.8
20260505021401 24 167 6.4 24.1 0.00 0.00 0.00 68 1005.6
20260505021126 24 219 6.4 24.1 0.00 0.00 0.00 68 1005.5
20260505020402 24 148 6.4 19.3 0.00 0.00 0.00 67 1005.6
20260505015902 24 163 4.8 19.3 0.00 0.00 0.00 67 1005.7
20260505015401 24 223 4.8 12.9 0.00 0.00 0.00 67 1005.7
20260505015122 24 228 6.4 14.5 0.00 0.00 0.00 67 1005.6